Change the Weather History Date:

Thursday, January 9, 2014

  Actual Average Record
Temperature  
Mean Temperature 11 °F 16 °F  
Max Temperature 21 °F 26 °F 55 °F (2008)
Min Temperature 0 °F 6 °F -22 °F (2004)
Degree Days  
Heating Degree Days 54 49  
Month to date heating degree days 507 433  
Since 1 July heating degree days 3651 3571  
Cooling Degree Days 0 0  
Month to date cooling degree days 0 0  
Year to date cooling degree days 0 0  
Moisture  
Dew Point 2 °F    
Average Humidity 66    
Maximum Humidity 87    
Minimum Humidity 45    
Precipitation  
Precipitation T in 0.08 in 0.54 in (1999)
Month to date precipitation 0.70 0.87  
Year to date precipitation 0.70 0.87  
Sea Level Pressure  
Sea Level Pressure 30.54 in    
Wind  
Wind Speed 3 mph (WNW)    
Max Wind Speed 15 mph    
Max Gust Speed 22 mph    
Visibility 10 miles    
Events Snow    
T = Trace of Precipitation, MM = Missing Value Source: NWS Daily Summary

Daily Weather History Graph

Daily Weather History Graph

Search for Another Location

Airport or City:

Trip Planner

Search our weather history database for the weather conditions in past years. The results will help you decide how hot, cold, wet, or windy it might be!

Date:

Astronomy

Jan. 09, 2014 Rise Set
Actual Time 7:26 AM EST 4:29 PM EST
Civil Twilight 6:53 AM EST 5:02 PM EST
Nautical Twilight 6:16 AM EST 5:38 PM EST
Astronomical Twilight 5:41 AM EST 6:13 PM EST
Moon 12:00 PM EST (1/9) 1:24 AM EST (1/9)
Length of Visible Light 10h 09m
Length of Day
9h 03m
Waxing Gibbous, 66% of the Moon is Illuminated
Jan 9
Waxing Gibbous
Jan 15
Full
Jan 24
Last Quarter
Jan 30
New
Feb 6
First Quarter

Hourly Weather History & Observations

Time (EST) Temp. Windchill Dew Point Humidity Pressure Visibility Wind Dir Wind Speed Gust Speed Precip Events Conditions
12:54 AM 12.9 °F - 3.9 °F 67% 30.39 in 10.0 mi Calm Calm - N/A   Overcast
1:54 AM 12.9 °F - 6.1 °F 74% 30.40 in 6.0 mi Calm Calm - 0.00 in Snow Light Snow
2:54 AM 10.9 °F - 6.1 °F 81% 30.40 in 10.0 mi Calm Calm - 0.00 in   Overcast
3:54 AM 15.1 °F 7.7 °F 6.1 °F 68% 30.42 in 10.0 mi Variable 4.6 mph - N/A   Overcast
4:54 AM 15.1 °F 9.4 °F 6.1 °F 68% 30.43 in 10.0 mi SW 3.5 mph - N/A   Overcast
5:54 AM 16.0 °F 6.3 °F 6.1 °F 65% 30.46 in 10.0 mi SW 6.9 mph - N/A   Overcast
6:54 AM 16.0 °F 10.4 °F 7.0 °F 68% 30.48 in 10.0 mi Variable 3.5 mph - N/A   Overcast
7:54 AM 17.1 °F 6.6 °F 3.0 °F 54% 30.52 in 10.0 mi West 8.1 mph - N/A   Overcast
8:54 AM 17.1 °F 8.7 °F 1.9 °F 52% 30.56 in 10.0 mi NW 5.8 mph 17.3 mph N/A   Overcast
9:54 AM 17.1 °F 4.3 °F 3.0 °F 54% 30.59 in 10.0 mi NW 11.5 mph 20.7 mph N/A   Overcast
10:54 AM 18.0 °F 7.7 °F 1.0 °F 48% 30.61 in 10.0 mi NW 8.1 mph - N/A   Scattered Clouds
11:54 AM 19.0 °F 11.1 °F 1.9 °F 47% 30.58 in 10.0 mi Variable 5.8 mph - N/A   Partly Cloudy
12:54 PM 19.9 °F 10.1 °F 1.9 °F 46% 30.59 in 10.0 mi NNW 8.1 mph - N/A   Clear
1:54 PM 19.9 °F 11.1 °F 3.0 °F 48% 30.59 in 10.0 mi NW 6.9 mph - N/A   Clear
2:54 PM 19.0 °F 12.3 °F 3.0 °F 50% 30.60 in 10.0 mi NNE 4.6 mph - N/A   Clear
3:54 PM 18.0 °F - 3.9 °F 54% 30.60 in 10.0 mi Calm Calm - N/A   Clear
4:54 PM 12.9 °F - 3.0 °F 65% 30.61 in 10.0 mi Calm Calm - N/A   Clear
6:54 PM 8.1 °F - 1.0 °F 73% 30.61 in 9.0 mi Calm Calm - N/A   Clear
7:54 PM 5.0 °F - -0.0 °F 80% 30.62 in 9.0 mi Calm Calm - N/A   Clear
8:54 PM 3.9 °F - -0.9 °F 80% 30.62 in 10.0 mi Calm Calm - N/A   Clear
9:54 PM 3.0 °F - -2.0 °F 80% 30.60 in 10.0 mi Calm Calm - N/A   Clear
10:54 PM 1.9 °F - -2.9 °F 80% 30.59 in 10.0 mi Calm Calm - N/A   Clear
11:54 PM -0.0 °F - -5.1 °F 79% 30.56 in 9.0 mi Calm Calm - N/A   Clear